User: anonymous   Login
Location: Pianadetto
(44.4000°N, 10.1000°E)
Time: 15:34:56
(UTC+00:00)
Language:

Lacrosse 5 rocket - Orbit

View from above orbital plane
View from above orbital plane
View from above satellite
View from above satellite

Ground track
Ground track

The orbit data is extracted from the following two-line orbital elements,

1 28647U 05016B   22229.11772014  .00001744  00000-0  11140-3 0  9995
2 28647  56.9947 261.8009 0124001 130.0279 231.1719 15.08114813179121
Epoch (UTC): 17 August 2022 02:49:31
Eccentricity: 0.0124001
inclination: 56.9947°
perigee height: 456 km
apogee height: 628 km
right ascension of ascending node: 261.8009°
argument of perigee: 130.0279°
revolutions per day: 15.08114813
mean anomaly at epoch: 231.1719°
orbit number at epoch: 17912

The dashed part of the orbit path shows where the satellite is in the earth's shadow,  

DLR